Location: Cella
(44.7333°N, 10.5667°E)
Time: 12:55:28
(UTC+00:00)

COSMOS 1867 COOLANT - Pass Details

Date: 27 September 2021
Orbit: 770 x 802 km, 65.0° (Epoch: 15 October)

Event Time Altitude Azimuth Distance (km) Brightness Sun altitude
Rises 18:31:43 0° 330° (NNW) 3,321 ? -16.0°
Reaches altitude 10° 18:34:40 10° 344° (NNW) 2,387 ? -16.5°
Maximum altitude 18:39:01 23° 37° (NE) 1,642 ? -17.3°
Enters shadow 18:40:43 20° 63° (ENE) 1,774 ? -17.6°
